User: anonymous   Login
Location: Unspecified
(0.0000°N, 0.0000°E)
Time: 06:54:27
(UTC+00:00)
Language:

STARLINK-31843 - Orbit

View from above orbital plane
View from above orbital plane
View from above satellite
View from above satellite

Ground track
Ground track

The orbit is defined by the following mean orbital elements,

1 59722U          26145.40650978 +.00000000 +00000-0 +15619-2 0 00009
2 59722  53.1592 143.8636 0001123  91.9311 268.1819 15.30545040    06
Epoch (UTC): 25 May 2026 09:45:22
Eccentricity: 0.0001123
inclination: 53.1592°
perigee height: 473 km
apogee height: 475 km
right ascension of ascending node: 143.8636°
argument of perigee: 91.9311°
revolutions per day: 15.30545040
mean anomaly at epoch: 268.1819°

The dashed part of the orbit path shows where the satellite is in the earth's shadow,  

DLR